CZ-6A DEB, 56620

Orbit data source: Space-Track

CZ-6A DEB, 56620 is space debris in SSO originally from a launch on Fri, 11 Nov 2022 UTC launched from the Taiyaun Space Center, China (TSC). Debris objects in space refer to the collection of defunct objects orbiting the Earth. Examples of debris include non-operational satellites, rocket bodies, and fragments generated from explosions, collisions, or faulty payload assembly.

Loading next visibility...
Identifier
56620, 2022-151AEU
Orbit
SSO
Country
Flag of CNCN / PRC
Related business
Manufacturer
SAST
Mission
Spacecraft
Bus & Motor
Unknown
Mass
Unknown
Launch date (UTC)
2022-11-11 (4 years ago)
Launch vehicle
Unknown
Launch site
Taiyaun Space Center, China (TSC)
Object type
Payload
Rocket body
Debris
Shape & HBR
Unknown shape, 0.1 m
Radar Cross Section
Medium (>0.1 m² and <1 m²)

Expand to show TLE details & history
Last TLE update: 1 day ago

TLE from 1 day ago
0 CZ-6A DEB
1 56620U 22151AEU 26236.30201440  .00000697  00000-0  56483-3 0  9994
2 56620  98.9390 189.8776 0154606 289.0779  69.3691 13.88078594173658
Epoch: 2026-08-24T07:14Z
TLE epoch observation values (Epoch: 2026-08-24T07:14:54.044Z)
Latitude
-0.00004°
Longitude
108.56675°
Altitude
899.932 km
Speed
7.421 km/s
True Right ascension
12h 39m 30s
True Declination
0° 00' 00"
Sunlit
Object was in daylight at epoch
Visualization orbit readout
Latitude
Unknown
Longitude
Unknown
Altitude
Unknown
Speed
Unknown
Apparent Right ascension
Unknown
Apparent Declination
Unknown
Sunlit
N/A
Visualization observer readout
Local Sidereal Time
02:05:19
Azimuth
Unknown
Elevation
Unknown
Doppler factor
Unknown
Orbital elements
Apogee altitude
1,045.612 km
Perigee altitude
819.555 km
Semi-major axis
7,310.72 km
Eccentricity
0.01546
Inclination
98.939°
RAAN
189.8776°
Arg. of periapsis
289.0779°
True anomaly
71.03827°
Mean anomaly
69.3691°
Eccentric anomaly
70.20257°
Mean motion
3.47219 °/min
Orbital period
103.68 mins
BSTAR
0.00056483
Loading maneuver chart data...
Computing Atmospheric mass density...
Loading historical data...
Loading historical data...
Loading historical data...
Loading historical data...
Loading historical data...
Loading historical data...
Loading historical data...

Documentation

Showing up to 5 results
|